CAPE
0 0 0 0 0 0 0 0 0 0 0 0 0 0 0 0 0 0 0 0 0 0 0 0 0 0 0 0 4 17 7 1 0 4 0 0 0 0 0 0 0 0 0 0 4
0 0 0 0 0 0 0 0 0 0 0 0 0 0 0 0 0 0 0 0 0 0 0 0 0 0 0 0 0 5 9 7 13 17 11 0 0 0 0 0 0 0 0 0 74
0 0 0 0 0 0 0 0 0 0 0 0 0 0 0 0 0 0 0 0 0 0 0 0 0 0 0 0 0 0 1 1 0 4 3 0 0 0 0 0 0 0 0 0 56
0 0 0 0 0 0 0 0 0 0 0 0 0 0 0 0 0 0 0 0 0 0 0 0 0 0 0 0 0 0 0 0 0 3 1 1 1 0 0 0 0 0 0 0 1
0 0 0 0 0 0 0 0 0 0 0 0 0 0 0 0 0 0 0 0 0 0 0 0 0 0 0 0 0 0 0 0 0 0 0 3 1 4 0 0 0 0 0 0 0
0 0 0 0 0 0 0 0 0 0 0 0 0 0 0 0 0 0 0 0 0 0 0 0 0 0 0 0 0 0 0 0 0 0 1 0 0 1 0 0 0 0 0 0 29
0 0 0 0 0 0 0 0 0 0 0 0 0 0 0 0 0 0 0 0 0 0 0 0 0 0 0 0 0 0 0 0 0 0 0 0 0 0 1 0 0 0 0 0 1
0 0 0 0 0 0 0 0 0 0 0 0 0 0 0 0 0 0 0 0 0 0 0 0 0 0 0 0 0 0 0 0 0 0 0 0 0 0 0 0 0 0 0 0 0
0 0 0 0 0 0 0 0 0 0 0 0 0 0 0 0 0 0 0 0 0 0 0 0 0 0 0 0 0 0 0 0 0 5 0 2 0 0 0 0 0 0 0 0 0
0 0 0 0 0 0 0 0 0 0 0 0 0 0 0 0 0 0 0 0 0 0 0 0 0 0 0 0 0 0 0 0 0 0 0 0 0 0 0 0 0 0 0 0 0
0 0 0 0 0 0 0 0 0 0 0 0 0 0 0 0 0 0 0 0 0 0 0 0 0 0 0 0 0 0 0 0 0 0 0 0 0 0 0 1 0 0 0 0 0
0 0 0 0 0 0 0 0 0 0 0 0 0 0 0 0 0 0 0 0 0 0 0 0 0 0 0 0 0 0 0 0 0 0 0 0 0 0 0 0 0 0 0 0 0
0 0 0 0 0 0 0 0 0 0 0 0 0 0 0 0 0 0 0 0 0 0 0 0 0 0 0 0 0 0 0 0 0 0 0 0 0 0 0 0 0 0 2 1 0
0 0 0 0 0 0 0 0 0 0 0 0 0 0 0 0 0 0 0 0 0 0 0 0 0 0 0 0 0 0 0 0 0 0 0 0 0 0 0 3 0 2 3 4 3
0 0 0 0 0 0 0 0 0 0 0 0 0 0 0 0 0 0 0 0 0 0 0 0 0 0 0 0 0 0 0 0 0 0 0 0 0 0 0 0 0 0 2 3 5
0 0 0 0 0 0 0 0 0 0 0 0 0 0 0 0 0 0 0 0 0 0 0 0 0 0 0 0 0 0 0 0 0 0 0 0 0 0 0 0 0 0 0 2 5
0 0 0 0 0 0 0 0 0 0 0 0 0 0 0 0 0 0 0 0 0 0 0 0 0 0 0 0 0 0 0 0 0 0 0 0 0 0 0 0 1 0 0 0 2
0 0 0 0 0 0 0 0 0 0 0 0 0 0 0 0 0 0 0 0 0 0 0 0 0 0 0 0 0 0 0 0 0 0 0 0 0 0 0 0 0 0 0 0 0
0 0 0 0 0 0 0 0 0 0 0 0 0 0 0 0 0 0 0 0 0 0 0 0 0 0 0 0 0 0 0 0 0 0 0 0 0 0 0 0 0 0 0 0 0
0 0 0 0 0 0 0 0 0 0 0 0 0 0 0 0 0 0 0 0 0 0 0 0 0 0 0 0 0 0 0 0 0 0 0 0 0 0 0 0 0 0 0 0 0
0 0 0 0 0 0 0 0 0 0 0 0 0 0 0 0 0 0 0 0 0 0 0 0 0 0 0 0 0 0 0 0 0 0 0 0 0 0 0 0 0 0 0 0 0
0 0 0 0 0 0 0 0 0 0 0 0 0 0 0 0 0 0 0 0 0 0 0 0 0 0 0 0 0 0 0 0 0 0 0 0 0 0 0 0 0 0 0 0 0
0 0 0 0 0 0 0 0 0 0 0 0 0 0 0 0 0 0 0 0 0 0 0 0 0 0 0 0 0 0 0 0 0 0 0 0 0 0 0 0 0 0 0 0 0
0 0 0 0 0 0 0 0 0 0 0 0 0 0 0 0 0 0 0 0 0 0 0 0 0 0 0 0 0 0 0 0 0 0 0 0 0 0 0 0 0 0 0 0 0
0 0 0 0 0 0 0 0 0 0 0 0 0 0 0 0 0 0 0 0 0 0 0 0 0 0 0 0 0 0 0 0 0 0 0 0 0 0 0 0 0 0 0 0 0
0 0 0 0 0 0 0 0 0 0 0 0 0 0 0 0 0 0 0 0 0 0 0 0 0 0 0 0 0 0 0 0 0 0 0 0 0 0 0 0 0 0 0 0 0
0 0 0 0 0 0 0 0 0 0 0 0 0 0 0 0 0 0 0 0 0 0 0 0 0 0 0 0 0 0 0 0 0 0 0 0 0 0 0 0 0 0 0 0 0
CIN
-0 -0 -0 -0 -0 -0 -0 -0 -0 -0 -0 -0 -0 -0 -0 -0 -0 -0 -0 -0 -0 -0 -0 -0 -0 -0 -0 -0 -14 -4 -2 -4 -0 -1 -1 -0 -0 -0 -0 -0 -0 -0 -0 -0 -120
-0 -0 -0 -0 -0 -0 -0 -0 -0 -0 -0 -0 -0 -0 -0 -0 -0 -0 -0 -0 -0 -0 -0 -0 -0 -0 -0 -0 -0 -13 -0 -0 -1 -8 -14 -0 -0 -0 -0 -0 -0 -0 -0 -0 -152
-0 -0 -0 -0 -0 -0 -0 -0 -0 -0 -0 -0 -0 -0 -0 -0 -0 -0 -0 -0 -0 -0 -0 -0 -0 -0 -0 -0 -0 -0 -0 -0 -0 -0 -0 -0 -0 -0 -0 -0 -0 -0 -0 -0 -87
-0 -0 -0 -0 -0 -0 -0 -0 -0 -0 -0 -0 -0 -0 -0 -0 -0 -0 -0 -0 -0 -0 -0 -0 -0 -0 -0 -0 -0 -0 -0 -0 -0 -0 -0 -0 -0 -0 -0 -0 -0 -0 -0 -0 -57
-0 -0 -0 -0 -0 -0 -0 -0 -0 -0 -0 -0 -0 -0 -0 -0 -0 -0 -0 -0 -0 -0 -0 -0 -0 -0 -0 -0 -0 -0 -0 -0 -0 -0 -0 -0 -0 -0 -0 -0 -0 -0 -0 -0 -24
-0 -0 -0 -0 -0 -0 -0 -0 -0 -0 -0 -0 -0 -0 -0 -0 -0 -0 -0 -0 -0 -0 -0 -0 -0 -0 -0 -0 -0 -0 -0 -0 -0 -0 -0 -0 -0 -0 -0 -0 -0 -0 -0 -0 -118
-0 -0 -0 -0 -0 -0 -0 -0 -0 -0 -0 -0 -0 -0 -0 -0 -0 -0 -0 -0 -0 -0 -0 -0 -0 -0 -0 -0 -0 -0 -0 -0 -0 -0 -0 -0 -0 -0 -0 -0 -0 -0 -0 -0 -14
-0 -0 -0 -0 -0 -0 -0 -0 -0 -0 -0 -0 -0 -0 -0 -0 -0 -0 -0 -0 -0 -0 -0 -0 -0 -0 -0 -0 -0 -0 -0 -0 -0 -0 -0 -0 -0 -0 -0 -0 -0 -0 -0 -0 -0
-0 -0 -0 -0 -0 -0 -0 -0 -0 -0 -0 -0 -0 -0 -0 -0 -0 -0 -0 -0 -0 -0 -0 -0 -0 -0 -0 -0 -0 -0 -0 -0 -0 -18 -0 -4 -1 -0 -0 -0 -0 -0 -0 -0 -0
-0 -0 -0 -0 -0 -0 -0 -0 -0 -0 -0 -0 -0 -0 -0 -0 -0 -0 -0 -0 -0 -0 -0 -0 -0 -0 -0 -0 -0 -0 -0 -0 -0 -0 -0 -0 -0 -0 -0 -0 -0 -0 -0 -0 -0
-0 -0 -0 -0 -0 -0 -0 -0 -0 -0 -0 -0 -0 -0 -0 -0 -0 -0 -0 -0 -0 -0 -0 -0 -0 -0 -0 -0 -0 -0 -0 -0 -0 -0 -0 -0 -0 -0 -0 -0 -0 -0 -0 -0 -0
-0 -0 -0 -0 -0 -0 -0 -0 -0 -0 -0 -0 -0 -0 -0 -0 -0 -0 -0 -0 -0 -0 -0 -0 -0 -0 -0 -0 -0 -0 -0 -0 -0 -0 -0 -0 -0 -0 -0 -0 -0 -0 -0 -0 -0
-0 -0 -0 -0 -0 -0 -0 -0 -0 -0 -0 -0 -0 -0 -0 -0 -0 -0 -0 -0 -0 -0 -0 -0 -0 -0 -0 -0 -0 -0 -0 -0 -0 -0 -5 -0 -0 -0 -0 -0 -0 -0 -0 -0 -0
-0 -0 -0 -0 -0 -0 -0 -0 -0 -0 -0 -0 -0 -0 -0 -0 -0 -0 -0 -0 -0 -0 -0 -0 -0 -0 -0 -0 -0 -0 -1 -0 -0 -0 -0 -0 -0 -0 -0 -0 -0 -0 -0 -0 -0
-0 -0 -0 -0 -0 -0 -0 -0 -0 -0 -0 -0 -0 -0 -0 -0 -0 -0 -0 -0 -0 -0 -0 -0 -0 -0 -0 -0 -0 -0 -0 -0 -0 -0 -0 -0 -0 -0 -0 -0 -0 -0 -0 -0 -0
-0 -0 -0 -0 -0 -0 -0 -0 -0 -0 -0 -0 -0 -0 -0 -0 -0 -0 -0 -0 -0 -0 -0 -0 -0 -0 -0 -0 -0 -0 -0 -0 -0 -0 -0 -0 -0 -0 -0 -0 -0 -0 -0 -0 -0
-0 -0 -0 -0 -0 -0 -0 -0 -0 -0 -0 -0 -0 -0 -0 -0 -0 -0 -0 -0 -0 -0 -0 -0 -0 -0 -0 -0 -0 -0 -0 -0 -0 -0 -0 -0 -0 -0 -0 -0 -0 -0 -0 -0 -0
-0 -0 -0 -0 -0 -0 -0 -0 -0 -0 -0 -0 -0 -0 -0 -0 -0 -0 -0 -0 -0 -0 -0 -0 -0 -0 -0 -0 -0 -0 -0 -0 -0 -0 -0 -0 -0 -0 -0 -0 -0 -0 -0 -0 -0
-0 -0 -0 -0 -0 -0 -0 -0 -0 -0 -0 -0 -0 -0 -0 -0 -0 -0 -0 -0 -0 -0 -0 -0 -0 -0 -0 -0 -0 -0 -0 -0 -0 -0 -0 -0 -0 -0 -0 -0 -0 -0 -0 -0 -0
-0 -0 -0 -0 -0 -0 -0 -0 -0 -0 -0 -0 -0 -0 -0 -0 -0 -0 -0 -0 -0 -0 -0 -0 -0 -0 -0 -0 -0 -0 -0 -0 -0 -0 -0 -0 -0 -0 -0 -0 -0 -0 -0 -0 -0
-0 -0 -0 -0 -0 -0 -0 -0 -0 -0 -0 -0 -0 -0 -0 -0 -0 -0 -0 -0 -0 -0 -0 -0 -0 -0 -0 -0 -0 -0 -0 -0 -0 -0 -0 -0 -0 -0 -0 -0 -0 -0 -0 -0 -0
-0 -0 -0 -0 -0 -0 -0 -0 -0 -0 -0 -0 -0 -0 -0 -0 -0 -0 -0 -0 -0 -0 -0 -0 -0 -0 -0 -0 -0 -0 -0 -0 -0 -0 -0 -0 -0 -0 -0 -0 -0 -0 -0 -0 -0
-0 -0 -0 -0 -0 -0 -0 -0 -0 -0 -0 -0 -0 -0 -0 -0 -0 -0 -0 -0 -0 -0 -0 -0 -0 -0 -0 -0 -0 -0 -0 -0 -0 -0 -0 -0 -0 -0 -0 -0 -0 -0 -0 -0 -0
-0 -0 -0 -0 -0 -0 -0 -0 -0 -0 -0 -0 -0 -0 -0 -0 -0 -0 -0 -0 -0 -0 -0 -0 -0 -0 -0 -0 -0 -0 -0 -0 -0 -0 -0 -0 -0 -0 -0 -0 -0 -0 -0 -0 -0
-0 -0 -0 -0 -0 -0 -0 -0 -0 -0 -0 -0 -0 -0 -0 -0 -0 -0 -0 -0 -0 -0 -0 -0 -0 -0 -0 -0 -0 -0 -0 -0 -0 -0 -0 -0 -0 -0 -0 -0 -0 -0 -0 -0 -0
-0 -0 -0 -0 -0 -0 -0 -0 -0 -0 -0 -0 -0 -0 -0 -0 -0 -0 -0 -0 -0 -0 -0 -0 -0 -0 -0 -0 -0 -0 -0 -0 -0 -0 -0 -0 -0 -0 -0 -0 -0 -0 -0 -0 -0
-0 -0 -0 -0 -0 -0 -0 -0 -0 -0 -0 -0 -0 -0 -0 -0 -0 -0 -0 -0 -0 -0 -0 -0 -0 -0 -0 -0 -0 -0 -0 -0 -0 -0 -0 -0 -0 -0 -0 -0 -0 -0 -0 -0 -0
Wind_Speed
32 31 30 29 29 30 29 30 34 40 40 37 35 28 27 28 29 40 42 38 38 37 37 36 34 33 30 31 32 34 49 62 57 52 48 33 37 41 42 44 38 34 37 26 18
33 30 29 28 28 29 29 29 33 39 38 38 38 34 29 28 27 42 39 38 39 37 37 37 35 33 30 31 33 38 54 56 43 46 47 50 40 36 36 41 50 39 37 23 22
33 31 29 28 27 28 28 30 32 36 37 37 37 37 35 24 29 39 36 39 39 33 29 27 28 28 29 30 33 40 47 43 43 39 37 41 44 37 38 43 35 38 45 33 29
34 31 29 27 25 27 27 31 30 34 35 37 36 38 37 33 40 33 35 39 36 30 27 27 27 31 30 32 33 43 44 41 43 40 38 46 42 43 40 40 31 33 37 44 32
35 31 28 26 23 23 23 25 30 31 35 33 35 38 37 41 39 32 32 36 33 27 26 28 30 30 31 29 34 42 45 41 39 43 46 39 51 47 49 42 34 34 34 36 36
35 32 26 25 21 19 19 19 23 29 31 33 31 29 43 48 34 32 35 33 29 26 23 22 24 23 28 32 35 36 43 46 44 44 41 48 48 45 42 40 36 34 32 34 36
35 32 27 23 22 19 17 15 18 21 22 29 28 28 35 42 33 35 36 31 24 21 20 18 16 20 22 25 26 32 41 45 45 45 48 40 53 55 44 44 41 35 32 32 35
34 33 28 23 21 19 17 15 15 19 20 26 28 27 35 31 32 38 39 32 26 21 17 16 15 17 17 23 27 30 31 44 39 40 41 39 59 44 44 45 48 36 34 33 31
34 35 28 24 22 21 20 18 16 20 23 27 35 30 41 30 41 37 35 31 30 29 27 22 18 17 20 22 25 23 32 36 38 30 38 45 47 45 35 40 51 38 36 34 33
32 33 26 23 23 21 21 20 19 24 28 25 40 31 36 38 35 38 35 31 28 30 25 24 22 19 22 24 26 24 23 29 35 33 35 43 49 39 43 38 43 39 34 33 32
10 19 23 24 22 26 22 22 20 22 36 38 35 36 34 33 29 41 36 27 27 28 33 24 29 23 8 5 26 22 25 26 28 28 33 37 42 41 34 39 41 48 36 33 30
2 19 22 22 27 28 25 25 20 19 30 30 29 32 32 29 36 42 38 33 33 33 27 32 32 23 16 18 6 22 22 23 24 21 25 33 42 35 35 31 31 33 34 31 31
3 17 22 21 23 28 28 26 19 18 26 30 29 32 36 30 38 40 40 30 32 33 28 32 27 23 18 19 24 18 17 19 22 23 22 27 40 34 26 23 22 27 27 30 31
4 18 24 22 23 23 24 21 19 19 27 35 33 31 34 30 37 35 41 29 33 31 29 25 23 27 24 20 16 15 16 19 20 19 24 21 38 33 27 29 24 24 26 29 30
2 19 26 26 24 24 21 19 20 20 35 25 30 25 32 36 28 35 38 26 34 32 30 32 25 27 30 20 16 15 14 17 16 17 17 20 26 28 24 32 33 28 25 26 27
8 19 24 24 25 23 21 20 22 27 32 27 25 30 33 30 30 30 37 38 28 29 29 28 23 25 27 16 18 11 18 8 10 13 13 14 19 24 25 27 31 30 30 28 31
15 20 24 23 25 22 21 21 25 35 24 25 27 28 30 31 30 33 38 44 48 40 42 31 32 26 29 27 21 19 23 15 7 9 11 15 13 18 19 20 22 28 29 29 27
17 22 22 25 21 22 22 26 34 24 26 23 24 27 31 34 30 32 36 43 40 38 33 40 42 33 27 29 23 22 24 23 14 10 11 13 15 16 15 17 21 22 27 29 29
20 23 25 25 23 21 24 34 27 24 22 24 24 31 32 31 31 33 35 38 36 38 39 37 34 26 27 27 27 24 23 17 20 10 12 12 12 13 18 20 20 22 24 28 28
21 21 30 24 23 24 29 28 24 21 22 24 30 29 32 31 32 34 36 31 33 33 27 30 32 27 26 26 29 30 18 22 16 16 8 15 15 16 18 21 22 24 24 27 28
23 22 27 26 23 30 31 26 21 20 21 23 25 27 27 29 29 30 31 27 29 30 27 28 29 28 25 31 32 31 31 22 21 19 15 8 17 17 19 21 24 25 25 26 28
23 24 27 26 31 27 29 24 21 21 20 21 21 23 25 27 26 28 29 26 25 27 29 25 27 31 28 23 23 26 28 26 23 20 16 13 10 14 20 24 24 25 26 26 27
22 23 24 28 29 29 24 23 21 21 19 21 21 21 23 25 27 24 25 21 24 26 28 24 28 32 31 29 25 25 23 24 20 17 17 15 11 12 23 27 26 26 26 26 27
22 24 25 29 28 26 25 24 25 20 19 19 19 20 23 24 20 23 24 21 21 23 23 22 24 27 29 24 23 24 21 21 22 20 16 12 6 6 6 27 27 25 27 27 27
27 24 23 24 25 25 22 22 24 25 19 18 20 18 22 25 24 22 22 21 20 20 23 24 25 23 17 13 16 17 19 20 20 18 16 13 9 4 4 7 26 26 27 28 28
28 23 21 18 18 21 22 20 22 24 20 19 19 20 18 21 20 22 21 21 20 21 24 23 26 25 22 20 19 17 16 18 19 19 16 13 8 7 6 8 24 27 27 28 28
26 23 23 20 15 20 19 20 19 22 19 16 17 19 18 15 14 13 12 12 13 18 22 23 27 29 26 23 19 21 18 18 19 17 18 19 16 14 8 5 5 27 26 28 29
Wind_Direction
39 41 42 44 45 43 45 43 35 28 28 32 31 33 29 28 25 16 9 2 355 352 345 336 327 313 300 279 269 263 254 250 250 252 254 261 252 251 250 247 249 251 249 260 232
37 43 44 44 45 43 43 40 37 31 32 32 28 27 26 26 26 7 5 4 356 352 344 334 325 316 294 279 268 257 252 252 257 259 256 251 253 252 248 246 244 248 249 255 225
37 42 43 44 48 44 45 42 41 37 33 31 29 30 25 27 19 6 8 2 355 351 347 344 334 321 296 282 266 256 253 256 255 263 263 256 248 254 246 243 244 247 241 244 232
30 38 43 46 51 48 48 42 43 39 34 31 34 32 27 32 8 10 6 1 359 357 351 341 332 313 296 279 267 257 252 257 258 260 261 252 255 247 245 241 249 252 244 238 229
27 36 41 47 54 55 54 50 43 39 33 33 33 31 30 26 20 14 8 5 6 7 360 345 329 317 293 282 272 258 253 253 256 257 255 258 247 247 244 244 253 253 252 236 224
20 34 43 46 54 59 58 57 46 38 36 33 32 33 26 21 21 17 11 9 14 15 10 2 347 334 306 283 271 266 257 254 255 254 252 249 250 245 241 241 248 250 248 241 234
15 29 37 49 51 56 57 61 50 39 37 32 32 36 29 25 24 19 14 18 21 19 15 16 15 351 329 295 287 280 258 253 250 248 249 248 244 239 242 241 242 246 245 243 239
12 24 38 49 54 54 53 58 56 42 38 34 36 40 33 30 24 22 20 27 31 34 41 40 46 22 355 314 294 279 270 249 249 250 246 238 240 243 242 238 236 242 243 243 245
13 18 39 50 53 50 51 58 68 50 43 50 37 41 31 27 25 24 26 33 39 49 56 58 57 41 16 332 300 289 264 256 252 255 241 235 239 239 239 234 234 238 240 242 246
22 360 44 51 50 51 53 63 72 53 47 49 37 39 29 25 28 27 31 41 47 49 52 51 46 43 16 338 298 289 276 260 251 251 249 239 236 244 236 235 236 236 238 243 247
67 55 50 51 53 45 57 56 55 48 40 41 40 42 31 30 38 29 29 45 47 48 42 51 43 41 43 60 290 294 277 268 260 260 248 238 235 236 238 233 236 235 240 243 248
323 55 50 54 47 43 53 48 59 63 40 45 43 40 35 38 33 31 33 43 43 43 47 47 43 40 51 48 107 294 284 273 265 259 253 242 234 238 235 233 237 239 241 244 248
57 57 50 54 53 45 48 51 68 69 44 40 40 36 33 39 36 31 32 43 43 43 45 46 43 42 54 58 354 310 290 274 263 259 255 249 235 231 237 237 243 242 247 245 247
80 56 44 56 49 50 50 54 66 66 43 35 36 37 32 39 39 38 33 48 45 45 46 51 45 44 52 64 73 325 282 274 259 254 243 254 226 230 247 234 243 249 250 250 250
206 53 39 45 48 45 49 60 67 62 33 30 36 40 32 41 37 36 38 52 45 46 51 45 45 45 50 59 74 103 239 255 252 250 259 246 231 239 243 240 244 250 255 251 259
101 56 43 46 46 49 54 63 60 46 37 40 38 32 33 40 43 39 41 46 53 51 51 52 54 59 47 57 76 101 144 235 258 264 248 268 236 236 238 251 251 258 256 257 257
75 53 46 47 38 51 56 56 42 37 38 35 35 31 35 35 41 40 39 41 43 44 44 48 52 57 48 58 75 91 115 156 289 291 265 276 260 246 258 267 266 262 262 264 266
66 52 51 44 48 51 54 45 37 44 42 41 38 34 38 37 42 38 40 41 44 46 48 45 48 50 48 57 69 91 101 104 155 295 290 306 261 254 275 281 277 276 265 267 270
58 50 44 38 45 53 44 35 44 46 45 39 39 37 39 39 40 39 41 42 44 43 46 45 51 55 60 61 68 80 88 111 114 360 311 302 300 288 295 286 290 284 278 269 271
51 46 31 37 48 45 39 45 51 53 49 46 39 40 36 35 39 39 39 45 43 43 54 49 49 58 60 65 68 71 91 88 114 111 355 292 293 297 293 291 290 291 285 270 270
44 39 35 32 46 33 38 47 53 54 51 47 42 39 39 36 40 41 40 46 43 41 53 51 53 52 62 57 58 62 67 83 97 100 105 11 296 315 304 300 290 290 295 284 270
40 37 29 34 27 37 40 49 52 49 52 48 47 42 39 38 41 41 39 44 44 44 44 51 53 48 53 63 67 67 63 70 77 81 93 108 112 2 317 303 293 289 295 292 281
33 35 31 28 30 37 48 50 49 47 48 46 43 44 42 38 38 41 39 47 45 44 44 48 48 45 51 58 62 59 60 63 76 81 77 82 96 42 317 299 298 290 295 290 288
33 27 26 20 29 40 41 43 40 45 46 45 42 43 37 36 42 37 36 45 43 48 47 55 51 48 46 49 52 52 51 59 62 63 65 73 73 90 62 296 295 291 292 293 292
38 31 34 32 36 38 44 42 37 35 45 46 43 39 36 33 32 37 37 34 48 48 47 49 44 42 41 47 51 48 49 52 53 57 58 56 61 74 91 27 303 295 290 289 291
40 39 36 46 47 42 43 41 36 33 40 40 38 35 35 30 30 24 30 36 42 46 41 46 40 35 43 49 49 43 46 51 52 52 51 51 43 82 71 43 326 300 294 294 292
41 42 38 39 52 41 42 38 35 31 39 41 34 30 27 27 27 23 26 35 39 35 38 40 35 32 37 37 37 42 49 51 48 51 49 44 53 52 47 44 35 319 307 300 299